[[{"header":{"parameterUnit":"m.s-1","parameterCategory":1,"la1":30.2991,"la2":30.254,"lo1":-89.0895,"lo2":-89.0444,"dy":0.0017,"dx":0.0017,"nx":28,"ny":28,"refTime":"2025-05-20T09:00:00:Z","depth":0,"parameterNumber":2,"parameterNumberName":"U-component_of_WINDS"},"data":[0,0,0,0,0,0,0,0,0,0,0,0,0,0,0,0,0,0,0,0,0,0,0,0,0,0,0,0,0,0,0,0,0,0,0,0,0,0,0,0,0,0,0,0,0,0,0,0,0,0,0,0,0,0,0,0,0,0,1.3073,1.3075,0,1.323,1.3232,1.3234,1.3237,1.3236,1.3234,1.3232,1.3399,1.3405,1.3412,0,0,0,0,0,0,0,0,0,0,0,0,0,1.2782,1.2787,1.3073,1.3075,1.3077,1.323,1.3232,1.3234,1.3238,1.3235,1.3233,1.3231,1.3397,1.3405,1.3412,0,0,0,0,0,0,0,0,0,0,0,0,0,1.2921,1.2789,1.3073,1.3097,1.3101,1.3229,1.3232,1.3235,1.3238,1.3235,1.3232,1.323,1.3395,1.3404,1.3413,1.353,0,0,1.3442,1.3446,0,0,0,0,0,0,0,0,1.2913,1.2931,1.3091,1.3095,1.31,1.3211,1.3191,1.3334,1.3239,1.3186,1.3232,1.3228,1.334,1.3353,1.3389,1.3538,1.3545,1.3443,1.3449,1.3453,1.3455,0,0,0,0,0,0,0,1.2903,1.2925,1.3135,1.3094,1.3099,1.3102,1.3118,1.3218,1.3278,1.3191,1.3191,1.3209,1.3341,1.338,1.3393,1.3548,1.3443,1.3451,1.3457,1.3461,1.3801,1.3804,0,0,0,0,0,0,1.2888,1.2917,1.313,1.314,1.2997,1.311,1.3128,1.3178,1.3277,1.3289,1.3212,1.3209,1.3366,1.3382,1.3399,1.3543,1.3453,1.3462,1.3467,1.3798,1.3802,1.3806,0,0,0,0,0,0,1.2881,1.2907,1.3124,1.3029,1.3056,1.3118,1.3174,1.3183,1.3222,1.3292,1.3304,1.324,1.3364,1.3386,1.3497,1.3549,1.3466,1.3474,1.3794,1.3799,1.3804,1.3831,0,0,0,0,0,0,1.2873,1.2904,1.2948,1.3029,1.3061,1.3218,1.3178,1.3188,1.3238,1.3235,1.3322,1.3334,1.3363,1.3483,1.3507,1.356,1.3482,1.3789,1.3796,1.3802,1.3826,1.3836,1.3845,0,0,0,0,0,1.2863,1.2951,1.295,1.2976,1.3117,1.322,1.3239,1.3269,1.3242,1.3287,1.3332,1.3331,1.3539,1.3495,1.3521,1.3578,1.3786,1.3794,1.3802,1.3821,1.3834,1.3845,0,0,0,0,0,0,1.2877,1.2962,1.2962,1.3079,1.3142,1.3221,1.3279,1.3282,1.3356,1.3351,1.3388,1.3407,1.3518,1.356,1.3508,1.3697,1.366,1.3673,1.3666,1.3679,1.3688,1.3676,1.349,0,0,0,0,0,1.2893,1.2968,1.3039,1.3136,1.3167,1.3217,1.3264,1.3281,1.3349,1.3377,1.343,1.3498,1.3578,1.3631,1.3709,1.3832,1.3851,1.3884,1.3894,1.3901,1.3913,1.3981,1.3997,1.3831,1.383,1.383,0,0,1.2928,1.2984,1.3029,1.314,1.3191,1.3269,1.324,1.3324,1.3384,1.339,1.3498,1.3539,1.3617,1.3735,1.3789,1.3773,1.3963,1.3911,1.3917,1.3924,1.3991,1.4006,1.402,1.3836,1.3835,1.3834,0,0,1.3032,1.3081,1.3167,1.3218,1.3295,1.3328,1.3348,1.3427,1.3454,1.3562,1.3568,1.364,1.3778,1.3833,1.388,1.4004,1.4006,1.4029,1.408,1.4146,1.4159,1.4171,1.4216,1.4231,1.404,1.404,1.404,0,1.3066,1.3183,1.3211,1.3295,1.3344,1.3351,1.3439,1.3488,1.3587,1.3622,1.3601,1.3774,1.3827,1.3958,1.3988,1.4025,1.405,1.4019,1.4155,1.4167,1.4178,1.4221,1.4238,1.4042,1.4042,1.4041,1.4041,0,1.3222,1.3303,1.3363,1.3456,1.3512,1.3597,1.364,1.3693,1.3706,1.3742,1.3852,1.3916,1.4007,1.4039,1.4054,1.4172,1.416,1.4147,1.411,1.4196,1.4237,1.4254,1.4045,1.4044,1.4044,1.4043,0,0,1.3339,1.3446,1.3468,1.351,1.3595,1.3659,1.3746,1.3832,1.3878,1.3946,1.402,1.4136,1.4125,1.4177,1.4198,1.4256,1.4351,1.4236,1.4238,1.4255,1.4486,1.4495,1.4513,1.4352,1.4355,1.4358,1.4479,0,1.3452,1.3604,1.3632,1.3765,1.384,1.3848,1.3924,1.3985,1.4021,1.4092,1.4132,1.4213,1.4192,1.4223,1.4281,1.4327,1.4397,1.4318,1.4423,1.4427,1.4403,1.4535,1.4545,1.4656,1.4495,1.4498,1.45,0,1.3604,1.3674,1.3814,1.3888,1.3921,1.3988,1.407,1.4137,1.4208,1.423,1.4287,1.4302,1.4394,1.4352,1.448,1.4426,1.4471,1.45,1.4505,1.4516,1.4468,1.455,1.4692,1.4708,1.4526,1.4524,1.4522,0,1.3676,1.3805,1.3905,1.3941,1.4031,1.4078,1.4118,1.4185,1.4236,1.4308,1.4341,1.4424,1.447,1.4534,1.4571,1.4537,1.4696,1.4658,1.4718,1.4718,1.4752,1.4749,1.4903,1.478,1.478,1.478,1.4779,0,1.3799,1.3885,1.3938,1.4,1.4096,1.4128,1.4223,1.4263,1.4323,1.4394,1.4406,1.4473,1.4517,1.4591,1.462,1.4722,1.4743,1.4764,1.4771,1.4763,1.476,1.4793,1.4786,1.4784,1.4783,1.4782,1.4782,0,1.3895,1.3935,1.4045,1.412,1.4141,1.4208,1.4274,1.4335,1.437,1.446,1.4483,1.4539,1.4626,1.4669,1.4778,1.4798,1.4913,1.4915,1.4888,1.4891,1.4949,1.4943,1.513,1.5156,1.5015,1.5017,1.5018,0,1.3971,1.4037,1.4119,1.4166,1.4206,1.4283,1.4333,1.4368,1.4421,1.4506,1.4557,1.4644,1.4715,1.4855,1.4907,1.499,1.4994,1.5054,1.5007,1.4997,1.4996,1.4991,1.4998,1.5063,1.5064,1.5065,1.5066,0,1.4102,1.4118,1.419,1.4269,1.4329,1.4393,1.4456,1.4495,1.454,1.4599,1.4687,1.4742,1.4852,1.4939,1.5026,1.5069,1.5076,1.508,1.5099,1.5091,1.5073,1.5083,1.4911,1.5076,1.5075,1.5074,1.5074,1.5073,1.4191,1.4249,1.4315,1.4395,1.4446,1.4505,1.4566,1.4608,1.4681,1.4772,1.4789,1.4882,1.4952,1.5069,1.5115,1.519,1.5177,1.5203,1.521,1.5216,1.5219,1.506,1.5206,1.5206,1.5206,1.5205,1.5205,0,1.4322,1.4365,1.4438,1.4525,1.4588,1.4586,1.4656,1.471,1.4791,1.4854,1.4924,1.5025,1.5109,1.5167,1.5253,1.5302,1.5307,1.5324,1.532,1.533,1.5226,1.5201,1.5318,1.5318,1.5318,1.5318,1.5318,1.5318,1.4397,1.4496,1.452,1.4645,1.4688,1.4778,1.4818,1.4873,1.4923,1.5035,1.5104,1.5141,1.5203,1.5293,1.537,1.5386,1.5417,1.5433,1.5448,1.535,1.5338,1.5326,1.5303,1.544,1.544,1.5546,1.5547,1.5548]},{"header":{"parameterUnit":"m.s-1","parameterCategory":1,"la1":30.2991,"la2":30.254,"lo1":-89.0895,"lo2":-89.0444,"dy":0.0017,"dx":0.0017,"nx":28,"ny":28,"refTime":"2025-05-20T09:00:00:Z","depth":0,"parameterNumber":3,"parameterNumberName":"V-component_of_WINDS"},"data":[0,0,0,0,0,0,0,0,0,0,0,0,0,0,0,0,0,0,0,0,0,0,0,0,0,0,0,0,0,0,0,0,0,0,0,0,0,0,0,0,0,0,0,0,0,0,0,0,0,0,0,0,0,0,0,0,0,0,2.1233,2.1233,0,2.1246,2.1246,2.1246,2.1219,2.1218,2.1217,2.1216,2.1228,2.1229,2.123,0,0,0,0,0,0,0,0,0,0,0,0,0,2.1181,2.1182,2.1233,2.1233,2.1233,2.1246,2.1246,2.1246,2.1219,2.1218,2.1217,2.1216,2.1228,2.1229,2.1231,0,0,0,0,0,0,0,0,0,0,0,0,0,2.1199,2.1182,2.1233,2.1221,2.122,2.1246,2.1246,2.1246,2.1219,2.1218,2.1217,2.1215,2.1227,2.1229,2.1231,2.1268,0,0,2.1236,2.1237,0,0,0,0,0,0,0,0,2.1198,2.1201,2.1223,2.1222,2.1221,2.1229,2.1232,2.1253,2.122,2.122,2.1216,2.1215,2.123,2.1231,2.1236,2.1268,2.1269,2.1236,2.1237,2.1238,2.1238,0,0,0,0,0,0,0,2.1197,2.1201,2.1238,2.1223,2.1222,2.1214,2.1215,2.1236,2.1232,2.122,2.1218,2.122,2.1229,2.1235,2.1236,2.1269,2.1236,2.1238,2.1239,2.1239,2.1327,2.1328,0,0,0,0,0,0,2.1198,2.12,2.1238,2.1238,2.1206,2.1216,2.1217,2.1228,2.1232,2.1231,2.1221,2.1218,2.1233,2.1234,2.1237,2.1277,2.1238,2.124,2.1241,2.1326,2.1327,2.1329,0,0,0,0,0,0,2.1197,2.1201,2.1237,2.1218,2.1222,2.1218,2.1231,2.1229,2.1235,2.1232,2.1231,2.1228,2.1232,2.1234,2.1259,2.1277,2.124,2.1242,2.1324,2.1326,2.1328,2.1359,0,0,0,0,0,0,2.1195,2.1201,2.1216,2.1219,2.1224,2.1261,2.1232,2.123,2.1238,2.1235,2.1239,2.1238,2.1231,2.1257,2.1261,2.1279,2.1243,2.1323,2.1325,2.1327,2.1357,2.1362,2.1367,0,0,0,0,0,2.1194,2.1225,2.1217,2.1222,2.1243,2.1262,2.1264,2.1256,2.124,2.1254,2.1251,2.1238,2.1275,2.126,2.1264,2.1282,2.1321,2.1324,2.1327,2.1354,2.1361,2.1367,0,0,0,0,0,0,2.1225,2.1226,2.1217,2.1251,2.1256,2.1257,2.1275,2.1264,2.1274,2.127,2.1259,2.126,2.1286,2.1287,2.127,2.1316,2.1295,2.1299,2.1314,2.1321,2.1326,2.1324,2.1245,0,0,0,0,0,2.1236,2.1253,2.1252,2.1282,2.1285,2.1279,2.1288,2.128,2.1285,2.1288,2.1288,2.1292,2.1304,2.1313,2.1325,2.1357,2.1356,2.1372,2.1377,2.1381,2.1384,2.1397,2.1403,2.1338,2.1338,2.1338,0,0,2.1259,2.1261,2.1272,2.1288,2.1291,2.1307,2.1282,2.13,2.1311,2.129,2.1313,2.1313,2.1317,2.1345,2.1357,2.1347,2.1401,2.1385,2.1388,2.1389,2.1401,2.1407,2.1412,2.134,2.134,2.134,0,0,2.1307,2.1312,2.1335,2.1339,2.1344,2.134,2.1345,2.1347,2.1346,2.1369,2.1353,2.1365,2.1388,2.139,2.1394,2.144,2.1427,2.1445,2.147,2.1483,2.1488,2.1493,2.1506,2.1511,2.1448,2.1448,2.1448,0,2.1334,2.1358,2.1349,2.1367,2.1373,2.1355,2.1376,2.138,2.1389,2.1393,2.1381,2.1406,2.1409,2.1435,2.1445,2.1451,2.1454,2.1443,2.1488,2.1493,2.1497,2.1509,2.1514,2.145,2.145,2.1449,2.1449,0,2.1389,2.1405,2.1423,2.1431,2.1439,2.1459,2.1451,2.146,2.1452,2.1448,2.1469,2.1471,2.1481,2.1487,2.1479,2.1511,2.1503,2.1491,2.1469,2.1505,2.1516,2.1521,2.1452,2.1452,2.1451,2.1451,0,0,2.1458,2.1458,2.1465,2.1466,2.147,2.1481,2.1499,2.1509,2.1515,2.1521,2.1534,2.1552,2.1539,2.1544,2.1536,2.1548,2.158,2.1533,2.1533,2.1539,2.161,2.1618,2.1624,2.1571,2.1572,2.1573,2.1609,0,2.1503,2.1534,2.1524,2.1555,2.1567,2.1549,2.1565,2.1567,2.1564,2.1573,2.1569,2.1581,2.1564,2.1567,2.1578,2.1573,2.1593,2.1571,2.1581,2.1581,2.1577,2.163,2.1639,2.1673,2.1613,2.1614,2.1615,0,2.1559,2.1566,2.1597,2.1595,2.16,2.1614,2.1619,2.163,2.1631,2.1628,2.1632,2.1621,2.1636,2.1616,2.1635,2.162,2.1623,2.1622,2.1623,2.1621,2.1598,2.1627,2.1684,2.1688,2.1622,2.1622,2.1621,0,2.1601,2.1619,2.1639,2.1641,2.164,2.1649,2.1649,2.165,2.1655,2.166,2.1662,2.1669,2.1672,2.1677,2.1668,2.1654,2.1687,2.1667,2.1682,2.1682,2.1688,2.1688,2.1743,2.1695,2.1695,2.1695,2.1695,0,2.1651,2.167,2.1657,2.1669,2.1689,2.1678,2.1697,2.1695,2.1695,2.1705,2.169,2.17,2.1688,2.1695,2.1688,2.1703,2.1706,2.1701,2.1698,2.1701,2.1701,2.1701,2.1698,2.1696,2.1696,2.1696,2.1696,0,2.17,2.1693,2.1713,2.171,2.1709,2.1723,2.172,2.173,2.1725,2.1737,2.174,2.1732,2.1739,2.1731,2.1739,2.1733,2.1753,2.1748,2.1752,2.1749,2.1764,2.1762,2.182,2.1826,2.1777,2.1777,2.1778,0,2.1731,2.1744,2.1742,2.1747,2.1748,2.1757,2.1761,2.1751,2.1755,2.1757,2.1766,2.1773,2.1777,2.179,2.1784,2.1789,2.1783,2.1803,2.1783,2.1784,2.1779,2.1777,2.1777,2.1806,2.1807,2.1807,2.1808,0,2.1784,2.1779,2.1786,2.1791,2.1796,2.18,2.1803,2.1808,2.1796,2.1802,2.1809,2.1813,2.182,2.1825,2.1828,2.1827,2.1814,2.1814,2.1817,2.1819,2.1819,2.1816,2.1759,2.1812,2.1812,2.1811,2.1811,2.1811,2.1823,2.1833,2.1831,2.1839,2.1839,2.1841,2.1849,2.1845,2.1851,2.1855,2.1849,2.1857,2.1856,2.1858,2.1858,2.1863,2.1855,2.186,2.1861,2.1862,2.1863,2.182,2.1864,2.1864,2.1864,2.1864,2.1864,0,2.1872,2.187,2.1877,2.188,2.1885,2.1874,2.1875,2.1879,2.1887,2.1887,2.1891,2.1899,2.1904,2.1898,2.1901,2.1907,2.1901,2.1908,2.1906,2.1905,2.1872,2.1867,2.1912,2.1912,2.1912,2.1912,2.1912,2.1912,2.1898,2.1913,2.1908,2.1922,2.192,2.1928,2.1929,2.193,2.193,2.1938,2.1942,2.1938,2.1935,2.1938,2.1941,2.1939,2.194,2.1948,2.1944,2.1913,2.1908,2.1903,2.1898,2.1949,2.1949,2.1975,2.1976,2.1976]}]]